GFSSW_500_spd_024.txt.gz
Wind_Speed
10 10 11 12 13 12 12 10 8 7 9 13 16 15 12 9 6 5 10 12 16 20 22 19 14 11 14 13 8 10 9 18 15 8 15 12 10 10 8 6 4 10 8 5 8
10 11 12 13 13 11 11 11 10 9 8 8 13 17 16 14 10 6 3 10 17 20 23 22 17 13 16 18 7 7 17 19 13 13 24 7 14 9 6 6 10 10 10 7 7
12 12 12 12 12 12 12 13 12 11 9 9 9 12 18 18 13 5 8 11 14 19 20 24 21 17 18 16 5 13 2 12 11 15 8 15 18 10 8 7 7 6 7 6 6
12 13 13 12 11 12 13 15 15 14 13 11 9 10 10 19 18 12 11 11 13 20 20 23 22 20 18 14 14 22 8 6 12 10 17 11 18 8 7 8 8 7 8 8 8
13 14 14 13 12 12 13 15 15 15 15 14 11 10 9 9 17 15 14 13 15 17 22 20 23 22 19 17 15 14 14 5 7 14 12 7 17 12 9 10 8 10 8 9 11
16 16 15 14 13 13 13 14 15 16 15 14 13 10 8 7 9 17 18 16 17 16 23 25 23 24 22 21 16 7 13 9 12 8 11 7 20 14 10 12 8 10 8 10 11
20 19 17 17 17 16 15 14 12 13 13 12 12 12 10 9 8 10 19 21 19 19 20 27 30 32 25 26 23 18 15 19 18 8 15 16 23 18 10 10 8 8 7 12 11
19 20 20 20 19 18 18 17 15 14 13 14 14 13 14 12 10 9 11 21 22 22 21 25 34 31 28 25 24 18 17 16 10 14 14 8 17 21 10 7 8 6 6 12 11
20 20 19 18 21 21 21 19 19 19 17 15 14 15 17 14 10 11 10 11 24 25 26 25 32 32 32 27 27 21 20 16 14 13 16 9 24 24 16 5 5 7 6 9 11
23 23 22 21 22 22 22 23 22 21 21 22 17 16 14 14 11 10 11 11 14 27 29 28 28 32 33 34 30 20 19 18 19 18 19 18 25 26 18 7 8 8 9 9 10
23 26 26 26 24 24 25 25 24 24 24 24 23 20 17 16 13 14 12 12 12 18 30 29 31 28 30 32 26 18 18 14 18 28 18 20 23 17 5 7 11 10 10 10 10
26 27 30 31 29 28 27 27 26 27 25 28 28 21 22 20 15 17 14 12 14 12 22 33 34 25 27 33 32 26 25 24 22 25 18 19 22 24 10 13 14 14 12 11 10
33 32 33 34 31 30 30 30 32 32 30 25 31 28 27 26 19 19 19 17 14 16 16 22 26 29 31 33 34 33 32 24 23 15 22 17 18 16 26 22 19 17 15 15 14
35 34 33 37 37 37 36 35 38 37 36 29 35 33 28 29 24 24 22 21 19 16 18 17 23 33 35 34 31 32 30 27 22 22 31 24 25 24 23 24 15 18 17 16 15
42 41 42 42 43 42 41 40 39 37 40 37 35 35 34 34 30 27 26 25 23 18 22 16 20 28 37 35 32 29 31 30 26 26 30 35 31 25 29 32 28 17 18 17 17
49 49 48 48 47 49 46 45 46 44 46 38 41 40 38 36 33 35 31 29 26 27 25 21 21 24 29 36 37 33 32 33 31 29 38 30 32 24 32 27 25 31 17 19 18
56 55 56 53 52 50 52 54 54 54 50 46 44 40 39 39 39 40 33 34 33 30 29 22 23 23 27 36 37 40 38 36 38 38 38 26 35 30 29 32 28 35 31 16 20
61 60 58 56 54 55 53 54 58 55 53 51 47 48 42 42 41 39 44 41 39 36 32 31 31 27 27 30 38 42 41 47 41 39 34 32 38 41 31 29 37 11 7 19 21
68 66 64 62 61 58 57 61 62 53 53 55 50 52 53 48 44 46 48 46 42 40 39 35 34 29 28 29 37 36 46 41 39 34 35 32 32 28 38 28 42 16 30 29 24
76 76 76 73 70 61 63 63 61 58 56 57 57 49 50 42 47 39 50 49 47 44 39 36 33 32 32 32 35 39 33 44 46 46 45 38 34 36 30 36 30 30 25 20 18
85 83 70 74 70 67 66 60 54 55 62 67 66 65 63 42 41 40 43 44 50 46 43 42 39 31 31 43 37 41 44 46 40 50 49 44 41 28 29 33 31 38 44 25 34
87 85 70 73 66 62 65 58 56 54 66 71 74 69 69 66 47 45 45 43 36 41 47 46 45 45 38 33 34 38 40 46 52 49 51 46 44 26 33 29 37 37 35 31 38
79 78 54 61 74 62 54 55 60 62 70 76 75 77 72 69 67 59 50 41 42 38 41 40 49 45 45 39 36 44 42 41 52 49 47 52 53 36 38 34 25 24 22 21 23
61 56 46 47 54 60 55 58 64 70 77 74 74 77 80 77 71 69 59 54 42 42 41 41 44 53 55 51 37 39 43 43 40 50 55 51 47 48 37 41 33 28 27 30 37
46 46 46 47 45 42 42 51 65 73 72 77 84 84 87 86 79 73 68 61 50 43 53 53 56 50 49 38 33 34 38 39 42 47 50 55 45 41 50 36 31 33 24 39 44
41 42 40 37 37 41 46 40 45 60 59 71 72 73 86 91 80 84 80 69 57 52 53 57 60 54 44 44 42 34 38 36 40 42 52 50 50 42 39 50 39 32 40 35 33
30 32 34 29 31 34 34 43 33 51 51 54 69 69 76 87 90 88 87 82 77 62 44 55 59 57 58 45 38 42 43 36 37 35 36 47 56 49 53 49 49 46 43 28 35

GFSSW_500_spd_027.txt.gz
Wind_Speed
8 8 9 10 10 9 7 7 6 7 8 8 13 15 13 10 6 3 8 9 13 16 19 18 14 14 18 15 11 8 3 13 20 17 10 21 21 19 19 11 7 2 8 7 2
9 10 11 11 11 10 9 9 9 8 7 8 8 10 16 14 8 7 2 4 10 14 21 20 18 16 14 17 12 12 21 16 12 3 8 10 18 14 15 12 10 9 7 7 5
10 12 12 13 12 11 10 10 10 9 8 8 8 8 9 15 12 11 7 8 11 14 18 22 21 20 17 17 13 17 13 9 7 4 12 16 21 13 12 16 7 5 6 5 4
11 11 13 14 14 13 12 12 12 11 9 8 8 8 7 7 15 15 12 10 11 14 14 15 21 21 21 17 15 7 7 11 6 10 17 16 22 15 14 12 11 8 7 6 2
13 15 15 14 13 13 13 13 12 12 12 9 7 8 7 5 6 17 15 13 13 11 17 19 20 22 21 19 11 7 7 11 11 11 11 20 21 17 21 16 9 8 8 6 4
14 13 13 14 14 13 14 14 13 11 10 9 7 6 6 7 4 11 17 16 16 13 17 20 16 22 26 23 16 9 5 14 5 6 15 18 22 20 19 17 10 9 7 9 7
14 12 10 10 12 14 14 15 15 13 12 10 8 7 6 6 5 8 9 19 18 17 15 20 24 31 26 25 22 21 20 10 8 7 16 20 20 12 25 16 9 8 8 9 9
17 15 13 13 12 13 13 15 15 15 14 13 12 10 13 9 6 6 8 10 22 21 20 20 27 29 30 24 25 25 26 22 14 18 18 21 14 19 25 15 11 6 7 4 10
17 17 16 15 17 16 16 16 16 16 16 17 13 12 15 11 9 6 8 9 16 25 25 23 23 28 29 28 27 27 22 20 17 18 15 16 17 15 23 20 15 7 4 4 7
20 21 21 19 19 20 20 19 18 17 16 18 15 16 14 13 11 10 8 9 11 21 29 28 24 26 26 30 25 22 19 18 11 15 16 21 18 14 19 28 19 10 3 5 7
21 23 24 24 24 24 27 26 23 23 20 20 15 15 18 15 16 15 12 11 11 14 22 30 31 23 20 20 20 23 24 17 10 20 24 22 16 15 11 14 10 9 4 5 6
27 25 27 30 27 28 29 29 28 27 22 25 25 14 20 19 16 18 18 13 13 12 17 22 24 24 23 23 24 27 24 19 17 27 24 20 19 18 16 18 17 9 6 6 7
34 33 29 32 32 32 33 31 31 31 29 18 29 28 24 23 17 19 20 19 16 15 16 15 12 26 28 29 26 27 25 22 25 31 24 27 19 14 17 16 19 9 5 7 10
42 41 37 36 39 36 36 33 38 37 41 28 33 31 27 28 22 22 21 23 22 17 19 18 19 25 30 32 29 27 24 23 30 21 29 22 20 24 21 14 12 12 6 7 9
44 45 45 45 44 44 43 39 40 40 48 37 36 30 28 29 24 26 27 26 23 22 27 12 21 21 24 29 33 18 31 30 33 26 33 24 35 33 26 29 20 18 18 9 9
47 48 48 47 44 48 48 45 44 45 51 42 41 36 31 30 28 30 30 32 27 31 32 22 22 23 20 26 33 25 31 38 37 31 35 29 32 25 35 25 26 21 27 21 12
53 54 54 51 54 52 52 53 52 53 51 48 46 46 44 41 36 35 36 37 35 32 33 25 29 25 26 27 29 35 36 41 45 46 46 35 36 25 23 22 26 26 24 23 16
59 59 57 59 58 59 58 57 59 56 53 48 45 51 49 47 45 41 42 40 39 39 33 33 34 28 24 27 29 31 42 45 52 52 45 40 45 30 17 17 23 27 27 24 24
63 65 65 67 65 62 62 63 62 57 56 58 56 58 54 52 51 47 48 44 39 37 41 36 36 29 32 27 32 32 38 37 45 45 50 46 42 26 22 26 25 30 35 27 41
73 71 66 69 68 70 71 70 67 63 61 62 62 58 60 59 52 47 45 44 45 42 39 39 40 34 33 33 35 37 32 33 45 49 53 44 46 31 22 28 32 36 36 31 26
79 77 64 67 71 72 70 69 66 64 64 68 69 67 65 65 66 60 56 46 43 44 41 41 43 40 40 44 40 38 40 43 37 46 49 47 50 33 33 28 28 34 27 32 30
89 86 69 67 70 73 71 66 65 65 65 70 73 74 74 73 72 72 67 61 33 37 42 42 42 48 48 45 40 41 41 42 47 44 50 52 46 34 30 23 28 26 29 31 32
90 86 63 65 71 63 61 60 64 66 71 76 80 82 78 76 79 77 74 65 46 49 46 37 50 48 51 50 50 48 42 44 44 45 48 48 42 37 37 38 41 38 38 29 24
75 67 52 50 55 57 59 65 68 72 79 84 86 86 86 83 81 81 79 69 59 58 55 52 52 57 61 57 50 50 46 44 43 48 48 50 42 36 44 41 39 34 37 27 12
43 46 42 35 41 47 47 50 51 67 70 71 85 89 89 94 91 89 85 82 72 68 67 62 59 61 59 50 54 52 44 43 46 47 48 43 50 42 47 49 46 37 30 28 29
22 23 25 25 29 38 37 38 43 44 58 66 71 69 75 91 91 92 92 87 82 76 74 71 67 57 56 56 50 59 48 44 44 41 43 42 46 50 43 40 40 45 41 28 31
17 18 20 19 26 32 36 42 47 59 54 49 53 64 60 72 91 94 93 91 88 81 74 72 67 57 61 55 50 49 64 52 41 39 38 45 40 41 54 50 33 30 42 44 42

GFSSW_500_spd_030.txt.gz
Wind_Speed
6 7 7 7 6 5 4 6 7 7 7 7 7 9 12 10 7 6 9 12 15 21 20 15 15 14 14 14 8 7 9 10 7 4 12 10 17 16 12 9 5 4 6 7 5
7 7 8 8 7 6 5 6 6 6 6 6 6 5 9 13 11 12 3 5 11 18 22 18 18 17 16 13 12 4 5 15 3 9 11 17 17 16 13 11 4 5 1 6 7
7 8 8 9 10 8 7 6 6 6 6 6 6 6 6 9 14 13 10 9 13 17 24 24 22 20 18 10 11 17 14 7 5 10 12 12 17 16 22 14 7 5 1 3 6
9 9 10 11 10 9 9 8 8 7 5 5 5 6 5 9 11 16 14 13 11 16 15 18 21 17 16 19 13 25 14 8 6 9 11 13 18 16 16 8 8 9 5 3 5
11 11 11 10 10 10 10 11 11 9 5 4 3 3 4 5 8 11 18 17 14 13 16 17 18 19 16 22 16 14 20 16 8 10 17 21 21 19 9 17 9 9 4 2 7
12 11 10 9 8 9 9 9 9 9 8 6 4 2 3 1 6 9 12 18 18 15 17 17 13 19 23 20 20 20 18 18 12 9 12 18 9 25 17 15 14 14 7 2 6
15 13 12 11 10 9 10 10 8 8 7 6 6 6 7 4 4 7 9 15 19 19 16 18 24 26 23 23 25 23 18 11 19 9 16 17 14 20 17 12 15 18 12 7 6
19 17 14 13 12 11 11 11 10 8 8 7 6 8 8 7 7 9 7 10 19 21 21 20 27 24 26 25 26 21 16 19 13 9 19 15 18 18 15 7 14 17 15 5 8
19 19 19 17 16 16 16 15 12 12 11 9 6 9 13 8 9 7 11 8 12 22 26 25 24 28 27 28 30 25 16 17 14 12 13 12 21 17 16 16 9 11 15 5 6
21 20 20 21 20 20 23 21 19 17 15 14 10 10 12 11 9 8 11 10 12 16 26 29 26 24 26 29 24 19 16 19 16 12 14 15 17 18 11 15 17 0 7 1 4
25 24 24 25 22 23 28 27 25 23 21 21 16 14 16 13 12 11 11 12 13 13 17 26 28 25 20 19 21 22 20 21 20 22 17 18 24 13 15 14 6 3 4 3 6
34 32 31 32 29 28 29 29 30 29 23 24 23 17 24 20 13 15 14 12 13 13 16 17 15 22 25 23 21 28 24 23 22 17 24 27 19 18 13 7 2 1 5 7 6
39 38 36 36 36 37 34 32 34 35 30 20 27 23 23 25 18 16 17 16 15 17 18 16 11 21 26 27 24 28 28 26 24 26 22 20 26 24 16 11 4 1 3 9 7
42 42 41 41 44 42 42 37 39 38 40 29 34 32 28 28 22 22 18 20 21 18 21 18 18 21 24 30 29 26 24 28 34 30 28 32 34 26 21 15 6 8 2 9 9
47 46 45 43 43 47 47 45 44 44 49 36 38 36 33 34 28 26 27 27 23 21 25 13 20 22 22 21 30 19 31 33 35 33 32 35 34 28 29 19 12 8 8 7 8
53 52 50 49 46 46 50 48 47 48 54 44 44 37 34 33 30 31 29 29 29 32 30 22 25 23 21 24 25 25 32 38 39 36 45 38 37 26 33 20 13 9 10 12 8
58 59 58 55 56 51 51 52 52 53 51 47 51 45 42 42 39 38 37 34 32 33 30 28 28 26 25 26 27 29 36 43 47 53 50 40 41 25 24 21 13 11 7 11 11
61 61 63 65 61 61 58 58 57 54 54 57 55 55 48 46 45 47 46 43 39 35 32 34 34 29 25 25 27 31 38 45 53 53 49 46 50 32 20 17 17 9 11 10 7
67 67 69 70 68 66 66 66 64 61 62 61 58 57 56 53 51 51 52 50 45 43 39 36 38 30 33 29 30 30 40 38 46 49 49 49 52 38 30 22 18 13 16 16 8
73 71 67 72 74 75 75 72 70 70 70 68 65 64 64 62 60 56 55 53 50 45 41 39 42 36 35 37 39 38 31 38 45 49 56 49 50 41 35 25 18 19 21 23 17
69 69 69 71 73 75 76 72 68 66 72 72 73 72 68 67 68 65 60 57 56 49 39 42 46 40 42 49 42 41 42 42 41 40 45 45 42 42 35 30 23 25 24 24 22
79 78 69 72 67 70 70 69 71 73 69 75 78 77 76 74 73 73 67 64 63 61 61 56 50 53 51 46 46 46 46 43 45 44 42 37 31 31 38 37 34 23 21 20 18
82 76 75 69 67 66 70 72 74 77 78 77 81 83 83 81 79 79 76 72 71 68 69 63 63 60 56 55 56 59 50 47 44 43 45 43 34 22 37 43 39 31 27 26 34
61 52 46 47 57 60 61 67 73 77 81 83 83 88 87 86 85 85 85 80 76 72 74 70 68 68 65 59 55 57 55 54 51 52 47 45 41 23 35 47 43 38 25 27 33
34 29 20 24 30 39 43 53 61 66 75 80 83 87 91 92 90 90 89 87 83 78 75 74 74 77 73 67 55 57 56 55 55 52 53 39 44 33 28 49 48 43 29 28 37
25 17 11 9 25 29 33 37 36 48 56 64 74 76 86 89 92 90 93 91 88 82 75 76 79 79 80 73 66 59 59 58 57 52 53 49 45 38 33 44 53 45 34 31 26
22 17 11 8 13 24 32 36 39 25 35 42 51 60 67 75 83 91 96 99 93 85 81 76 79 80 79 75 67 51 68 66 62 56 53 52 43 38 37 39 54 58 46 28 36

GFSSW_500_spd_033.txt.gz
Wind_Speed
6 7 7 7 8 9 8 7 7 6 6 7 6 7 13 14 11 9 14 17 12 19 22 15 12 14 13 13 9 2 4 8 10 13 10 13 21 23 13 11 7 5 6 6 9
8 8 8 8 8 8 8 8 8 8 6 5 6 8 9 13 15 16 7 10 11 12 18 20 17 16 12 15 9 4 8 9 6 9 12 13 19 22 16 9 6 2 5 9 8
10 9 9 9 9 9 8 9 8 8 7 6 5 6 10 10 16 19 15 14 13 16 19 24 22 17 12 13 12 8 11 10 7 13 14 15 16 21 20 15 13 4 1 6 9
12 12 12 12 11 9 9 8 7 8 7 7 7 6 9 11 10 18 20 18 15 18 18 15 14 17 11 13 16 17 13 8 8 11 13 18 18 16 14 14 11 7 3 2 4
15 15 15 15 13 12 10 8 7 5 5 6 6 7 7 8 9 11 20 21 19 16 15 14 11 16 12 18 14 20 15 14 7 9 3 15 15 16 14 16 16 10 5 2 1
18 17 17 16 14 13 12 10 8 6 5 4 5 7 8 1 7 8 9 22 21 19 16 16 12 16 18 22 19 16 20 19 15 15 3 13 17 17 13 14 17 15 6 2 4
21 21 20 19 18 16 14 13 12 10 7 6 5 7 9 5 8 8 6 11 21 22 19 17 22 20 19 26 23 22 21 16 9 7 3 8 15 20 12 12 15 15 13 3 7
22 22 22 21 19 18 16 12 12 11 10 9 9 9 7 7 11 10 9 8 16 22 22 22 25 24 23 25 29 23 24 12 12 13 13 8 6 14 14 15 17 11 9 5 8
25 26 26 24 22 22 21 17 15 14 12 10 11 12 14 11 8 7 14 10 12 18 26 27 26 26 27 28 30 29 18 16 17 18 11 13 3 9 11 11 17 10 5 5 5
29 29 28 27 25 25 27 24 21 20 17 16 13 14 17 13 13 10 15 11 14 16 22 28 28 26 25 27 20 23 19 16 20 19 15 10 6 6 7 10 12 5 6 8 8
33 32 32 32 30 28 31 30 29 28 23 23 20 20 20 18 16 15 18 14 13 14 14 19 25 25 24 21 22 21 22 18 24 23 15 14 14 0 8 6 3 5 5 5 9
41 40 40 39 38 36 33 32 31 32 26 27 26 22 27 26 18 18 18 16 15 14 18 15 10 16 28 27 24 26 22 20 25 25 22 20 13 8 8 7 6 3 2 4 7
45 45 45 46 45 44 42 40 38 37 34 25 30 29 27 31 20 23 18 18 18 19 18 16 12 17 22 27 27 26 26 21 26 30 31 23 22 12 9 11 9 11 5 4 5
50 49 48 48 49 50 49 46 45 44 42 32 32 33 35 32 26 22 21 23 24 20 21 20 20 20 20 24 27 28 22 29 33 35 36 30 27 21 13 13 13 18 14 7 4
54 55 54 53 52 51 51 50 50 50 49 42 39 39 38 38 34 29 28 30 30 24 27 15 21 21 22 13 23 20 30 33 37 41 40 38 37 30 23 15 14 13 14 12 6
56 57 60 58 58 55 56 54 52 52 56 48 47 46 41 39 39 38 41 37 35 36 31 25 27 26 22 22 21 21 32 36 42 43 50 37 38 26 19 15 20 8 8 8 6
59 60 62 63 61 61 60 61 60 57 57 56 55 50 47 43 42 44 43 40 38 37 30 28 28 29 26 25 25 29 39 43 50 54 48 37 42 22 20 18 19 14 11 10 10
63 63 64 68 66 65 65 66 66 63 62 59 57 55 50 49 51 48 46 46 43 41 36 37 34 31 29 26 26 27 37 46 49 52 44 41 40 19 22 22 25 16 17 13 10
67 66 68 67 70 71 71 70 68 68 67 63 60 60 58 54 56 53 52 49 48 45 42 41 37 32 34 32 34 30 39 34 45 48 49 46 35 33 30 29 26 22 19 15 11
68 68 67 69 70 74 75 74 73 73 71 70 66 67 65 63 61 58 57 57 55 55 51 48 45 37 36 41 43 40 31 38 46 49 50 44 34 26 28 30 28 25 27 21 17
74 72 70 68 68 69 72 74 74 75 76 75 74 71 72 71 68 65 64 63 60 58 58 56 55 46 44 50 43 42 44 42 42 46 46 42 29 27 27 29 32 24 23 21 20
75 74 74 72 67 67 69 71 76 75 80 82 82 79 77 77 76 73 69 71 66 64 63 61 59 56 54 48 45 48 47 48 49 41 37 36 37 29 30 30 32 33 32 29 21
49 52 61 62 55 58 64 68 72 76 79 85 87 86 86 83 81 81 80 76 73 71 70 67 65 60 59 56 57 59 55 51 46 44 46 42 36 22 20 29 38 36 33 31 28
41 40 39 38 35 41 51 58 68 74 75 80 86 89 90 89 87 86 86 81 79 77 76 74 72 68 65 62 59 60 59 57 53 55 45 43 37 21 22 27 33 39 38 32 36
37 32 29 24 25 28 39 48 56 61 60 70 79 86 89 89 89 89 91 89 85 83 82 80 78 76 72 69 67 64 63 59 58 56 54 40 42 32 24 28 31 36 45 46 43
31 27 21 18 17 20 27 27 32 42 49 52 57 78 82 86 88 86 91 92 91 88 86 85 84 82 79 75 71 72 69 64 60 56 55 49 49 37 28 33 37 37 45 50 50
26 24 21 13 18 15 18 27 31 31 22 26 42 55 61 74 80 83 88 95 94 90 87 88 89 86 85 80 77 76 71 67 66 60 56 55 46 41 37 36 39 39 40 47 50

GFSSW_500_spd_036.txt.gz
Wind_Speed
10 10 10 9 9 10 10 10 9 8 8 7 8 9 12 15 14 14 17 14 6 5 14 12 10 10 12 12 12 6 14 15 14 15 12 8 11 16 14 11 8 8 8 7 8
12 12 12 11 10 10 11 11 10 10 10 10 7 8 11 12 18 19 18 14 9 7 6 14 16 13 12 12 12 6 15 15 14 16 17 10 14 15 14 13 8 4 6 9 8
16 15 15 14 14 13 13 13 11 10 10 10 11 11 11 11 14 20 21 14 11 15 15 18 18 16 10 13 14 9 11 11 9 11 18 15 13 12 16 16 13 6 2 6 9
18 18 18 18 18 17 15 14 12 10 10 11 11 11 14 12 12 14 23 20 18 15 17 10 11 12 10 16 18 11 12 10 9 15 18 17 14 10 18 21 17 11 4 1 4
21 21 21 21 21 20 19 16 14 12 11 9 10 10 13 11 9 13 13 23 21 19 14 10 9 12 13 17 18 17 17 14 10 15 16 14 18 14 17 20 18 15 9 0 7
24 24 24 23 23 23 21 18 15 14 13 11 9 11 13 9 9 6 11 15 23 20 18 10 12 17 18 19 18 22 26 21 14 12 16 15 15 15 15 18 18 12 9 5 7
24 25 26 25 25 26 25 21 19 17 15 13 12 13 15 6 11 9 6 12 16 22 20 15 20 18 19 21 24 22 26 20 15 3 5 12 12 15 10 19 17 17 9 6 8
28 27 25 24 24 27 27 22 21 19 17 17 15 16 16 8 14 12 8 9 13 17 22 22 20 23 23 25 29 25 24 16 15 7 6 10 10 11 12 13 15 16 6 6 9
30 31 31 29 27 27 28 26 22 20 18 17 18 20 21 13 13 13 13 13 12 14 19 25 22 20 24 24 29 27 20 16 16 11 9 11 11 12 8 8 12 13 4 3 9
35 35 35 35 33 32 31 31 29 25 23 20 19 20 21 17 18 19 17 13 14 15 15 16 22 25 21 21 16 22 20 22 16 11 13 7 17 13 12 7 11 6 5 2 7
41 41 40 40 38 37 36 34 34 32 27 28 24 24 23 23 20 21 21 16 17 14 12 14 16 13 20 19 18 22 25 25 19 20 13 13 14 15 14 9 9 9 5 4 5
45 45 44 47 46 43 41 40 39 38 32 31 31 27 30 29 26 22 23 21 18 15 19 14 4 11 21 24 21 24 23 25 24 23 20 18 20 16 11 14 10 4 5 7 7
51 51 49 49 50 50 48 47 45 44 41 31 33 32 33 34 28 28 27 25 22 23 20 17 12 16 19 22 25 22 18 22 25 30 29 24 22 20 13 15 16 14 11 13 11
54 55 55 53 54 54 53 52 52 50 49 43 40 40 38 38 33 29 29 29 27 22 23 21 20 21 18 17 22 24 19 27 28 33 35 31 29 22 18 17 18 16 16 16 15
58 58 57 57 55 58 58 57 56 55 54 51 47 45 43 43 38 33 32 33 27 26 28 19 20 20 20 12 18 18 26 26 33 35 36 39 32 23 24 20 17 21 20 20 18
56 58 61 60 61 59 59 62 62 59 60 56 53 48 47 43 44 39 43 38 34 35 33 30 27 29 23 23 21 21 31 33 37 41 46 37 34 24 27 16 19 20 17 15 20
64 62 61 62 60 63 63 62 64 65 61 61 60 56 52 47 45 43 43 46 42 41 36 30 30 29 28 27 25 27 35 41 43 47 40 34 39 15 19 15 24 22 19 13 13
70 70 67 66 65 64 65 66 67 67 67 66 64 62 54 53 52 47 46 48 48 45 40 38 38 33 31 26 25 26 34 42 38 37 34 39 29 13 18 24 26 23 22 24 24
72 70 70 69 67 69 69 69 69 69 70 69 68 66 65 57 54 51 51 49 46 45 43 45 43 38 37 34 33 33 34 30 41 40 39 40 28 28 23 25 29 25 25 28 24
76 76 73 71 70 69 70 71 71 74 73 74 71 70 70 66 59 58 57 55 54 53 49 50 47 42 36 41 41 38 32 38 43 43 38 35 28 20 19 22 26 25 26 26 23
62 65 67 70 72 69 68 71 72 76 78 76 75 73 72 70 66 63 64 61 59 57 57 54 52 49 48 49 40 40 42 43 42 42 37 34 24 21 16 19 27 25 30 30 30
45 47 49 51 58 59 62 66 69 68 76 81 80 79 76 74 73 69 67 68 65 64 62 60 60 56 54 49 45 43 45 46 47 37 34 33 26 20 14 17 26 31 33 29 28
40 41 42 40 41 41 44 49 60 66 71 79 83 84 83 80 78 74 73 72 71 68 68 65 65 62 58 57 57 57 50 50 46 45 45 41 25 23 14 14 22 31 35 31 28
35 34 33 33 33 29 26 34 49 58 63 73 81 85 86 86 83 81 77 76 75 74 73 71 69 66 64 61 62 62 58 55 52 55 46 45 31 21 21 20 21 31 40 42 40
35 30 26 26 25 24 20 23 36 45 49 54 69 79 82 85 86 85 82 80 78 79 79 77 74 72 70 66 64 63 62 61 60 55 53 43 38 28 23 20 24 26 33 41 42
32 30 23 20 20 20 21 20 19 29 34 40 32 54 75 76 82 82 85 85 83 82 83 82 80 78 75 73 70 66 63 62 62 60 58 50 48 38 29 25 29 29 30 32 42
29 27 25 21 18 18 20 19 17 14 20 25 46 43 42 63 77 80 85 87 89 87 86 87 87 83 81 78 76 74 66 64 64 64 59 54 47 40 33 31 32 34 36 33 32

GFSSW_500_spd_042.txt.gz
Wind_Speed
17 17 17 17 16 15 14 13 13 13 11 11 11 10 10 10 12 15 14 8 3 14 14 14 13 17 17 12 22 18 10 7 9 4 7 8 10 15 15 13 14 14 14 14 11
21 21 20 20 19 18 18 17 16 16 15 14 12 12 12 9 11 15 15 15 13 13 18 18 17 16 21 17 20 22 19 14 9 6 8 11 13 13 15 16 15 16 16 14 12
22 22 22 22 22 22 21 20 19 19 18 17 17 16 14 12 10 13 15 18 15 17 22 24 23 20 19 20 20 23 24 18 14 13 8 8 10 12 14 18 17 17 16 16 15
25 24 24 24 25 24 24 23 23 22 21 18 18 18 17 14 11 10 15 16 19 18 19 20 24 21 17 18 22 24 24 21 17 13 9 10 11 14 16 17 18 18 19 17 17
25 26 25 25 25 26 26 26 26 25 23 21 20 20 18 16 7 12 14 15 17 21 18 17 18 22 21 20 23 24 25 22 20 16 12 9 12 14 15 17 15 15 16 16 16
26 25 25 25 26 25 26 27 28 26 24 23 23 22 21 18 11 13 11 14 16 20 23 17 19 22 28 25 25 27 28 23 17 20 16 12 9 9 14 16 15 14 15 17 15
30 29 27 27 28 27 26 28 29 28 26 24 25 23 24 20 14 17 14 13 15 15 24 25 23 25 26 31 28 29 28 27 20 23 19 13 10 9 10 10 10 12 14 15 15
33 34 33 32 31 29 28 28 28 28 28 26 27 26 25 26 20 19 18 14 14 16 19 26 26 27 26 26 29 29 31 29 22 22 17 14 8 9 8 6 6 7 13 16 16
37 37 37 36 36 35 33 31 30 30 29 28 28 28 29 30 24 20 20 20 18 16 15 19 27 24 24 24 28 30 27 32 31 23 20 17 15 15 12 9 6 9 12 17 17
40 41 43 43 40 39 39 37 35 33 32 30 29 30 29 30 29 24 25 21 20 20 17 14 19 26 25 24 22 26 28 32 35 31 25 22 20 17 16 13 11 12 15 17 18
40 42 45 47 47 45 44 43 42 39 37 35 31 33 30 30 32 30 29 26 23 19 14 15 17 14 21 24 22 23 27 26 32 33 27 27 25 19 18 19 16 15 17 18 19
45 43 44 45 49 50 50 49 48 46 41 41 39 34 35 34 35 33 33 29 25 18 21 18 8 18 25 30 26 24 22 27 31 36 29 26 31 26 24 22 21 18 18 20 18
50 50 47 49 49 49 51 53 54 52 50 44 44 40 40 40 38 36 35 32 31 29 22 19 20 22 25 30 33 31 27 31 31 34 33 28 28 32 29 26 24 19 19 21 22
60 59 59 56 54 55 54 51 54 57 58 54 48 49 45 45 44 40 38 38 36 31 27 29 28 25 23 25 29 32 30 32 40 38 34 34 27 31 29 25 24 21 18 18 20
70 69 68 65 62 59 59 58 56 54 57 62 58 52 49 50 47 46 41 45 41 35 35 25 24 23 24 16 24 27 35 36 35 42 39 37 36 35 38 34 24 21 19 20 21
86 83 81 76 70 68 65 62 61 60 62 61 60 57 51 52 54 51 46 46 43 40 41 35 34 35 26 30 27 30 38 38 38 38 48 35 34 40 39 36 28 23 21 23 23
84 86 87 86 82 75 69 70 65 66 63 63 64 62 55 52 54 53 53 51 50 47 43 38 40 37 36 36 34 34 39 43 45 44 40 33 36 31 44 37 36 28 26 24 25
61 61 60 60 63 67 63 66 70 69 72 68 64 61 57 56 52 53 52 55 54 49 49 43 42 41 38 36 33 35 35 40 43 39 39 39 29 20 26 35 37 35 32 28 30
63 59 60 48 45 42 42 54 57 73 76 70 67 64 61 58 54 55 52 53 53 54 53 51 46 43 42 38 37 32 38 27 37 38 35 30 23 26 24 32 40 37 31 29 29
63 58 54 42 37 34 30 33 47 58 67 68 63 68 68 65 59 57 57 59 55 55 57 57 53 51 47 42 43 39 30 38 39 40 33 27 23 16 14 30 36 38 31 25 30
56 53 52 38 31 30 27 28 33 42 55 63 66 70 68 66 63 61 63 62 61 61 60 57 55 56 54 51 45 44 43 40 37 35 31 25 19 12 16 27 33 33 35 29 30
50 48 51 39 32 29 27 23 29 34 41 52 63 66 70 68 65 64 65 66 66 64 58 58 58 59 57 53 52 48 44 40 43 36 31 23 17 19 19 25 37 34 31 29 30
47 44 45 42 33 30 27 21 22 27 35 42 53 66 68 69 68 69 70 66 66 66 64 64 60 59 60 58 59 56 51 50 47 41 37 34 29 23 14 24 33 38 38 35 31
45 46 45 42 34 30 23 19 17 20 24 35 42 55 65 67 69 73 72 71 70 70 66 63 63 61 57 48 53 56 56 56 50 47 43 37 32 23 17 20 30 39 42 40 38
43 45 44 43 37 30 24 16 13 13 14 18 25 38 53 63 69 71 76 75 75 73 71 69 66 65 64 65 61 58 58 56 53 48 47 40 35 31 24 22 29 36 43 45 46
42 42 42 43 38 26 21 17 13 11 9 7 18 20 22 49 67 70 77 78 79 77 76 74 73 71 67 64 63 62 61 58 54 50 49 42 39 33 30 29 31 31 40 45 46
39 42 40 42 39 32 20 16 13 11 11 8 22 28 22 27 55 70 74 72 80 80 79 77 76 73 70 67 66 68 62 60 59 55 51 45 43 33 31 26 27 25 35 44 46

GFSSW_500_spd_045.txt.gz
Wind_Speed
21 21 21 20 19 18 17 16 15 14 12 12 12 11 10 7 10 14 14 8 11 17 16 15 14 19 17 11 10 8 10 4 11 17 11 5 7 11 12 12 14 15 12 13 13
21 22 23 23 22 22 21 20 19 18 15 14 15 14 12 11 9 12 14 15 12 13 20 17 17 20 21 15 12 12 9 19 11 3 15 8 8 10 14 15 15 16 14 15 13
21 22 23 24 24 23 23 23 23 22 20 18 17 17 15 14 12 11 15 20 20 18 20 25 24 22 25 21 17 16 13 14 16 17 1 15 8 12 15 17 18 18 16 16 15
22 22 22 23 24 24 24 25 25 24 23 22 22 20 18 16 14 13 15 17 23 21 20 24 25 23 23 25 22 22 21 18 15 12 11 8 8 9 13 17 20 19 19 17 16
24 24 24 24 24 24 24 25 26 25 25 25 25 23 21 18 14 16 17 16 19 25 23 22 22 25 21 25 27 24 24 25 21 13 10 16 17 6 12 15 19 19 21 19 16
27 27 27 26 25 25 26 27 26 26 25 26 27 24 23 21 15 16 16 16 18 23 27 24 23 23 27 26 28 24 26 23 20 15 15 11 10 9 11 16 17 19 20 21 21
33 32 30 30 28 28 28 28 30 30 27 27 28 26 24 27 20 17 19 17 15 21 27 28 26 29 27 30 27 32 28 27 25 19 17 15 13 12 13 13 14 15 17 19 21
36 37 37 35 35 34 32 31 31 30 30 29 28 28 24 27 25 21 22 19 19 18 22 32 30 29 30 30 35 34 31 29 26 21 21 14 10 16 12 12 12 14 12 17 18
35 37 40 39 39 39 38 36 36 34 33 31 31 30 30 27 29 26 23 23 23 20 21 24 34 30 32 31 33 35 32 29 25 22 20 17 19 30 13 14 12 12 12 16 20
34 35 36 38 40 41 42 43 41 39 38 36 34 32 31 31 31 29 27 26 26 25 23 21 27 35 33 30 27 33 33 25 27 24 28 20 13 7 17 17 15 13 13 16 20
44 46 46 43 41 40 39 44 45 47 42 42 39 36 33 33 32 34 31 28 28 26 23 21 23 28 30 25 27 27 24 27 24 23 28 23 20 18 19 18 15 18 14 15 20
49 49 50 50 50 49 47 45 45 49 48 47 46 40 40 35 35 36 34 32 30 24 25 24 15 20 28 32 31 32 29 26 27 26 30 27 25 23 23 23 23 19 16 17 20
55 55 57 56 56 59 55 55 53 50 51 45 50 48 45 42 40 39 37 34 32 33 29 23 20 23 30 36 38 35 32 29 26 27 31 30 29 29 25 26 27 23 20 20 19
70 71 71 71 67 63 63 61 59 57 55 49 49 54 50 48 47 44 39 38 38 35 31 30 28 32 29 33 36 37 32 31 29 30 30 36 30 30 28 28 30 26 24 20 19
80 81 84 84 80 77 73 71 64 58 56 59 54 52 55 53 47 50 43 45 44 39 38 32 33 32 30 23 28 32 36 38 37 32 32 30 34 25 26 28 28 26 21 21 21
51 49 51 59 67 78 81 80 74 61 63 54 59 55 56 57 55 54 51 50 45 45 43 39 34 35 30 29 28 30 38 40 41 40 45 40 34 30 29 25 24 29 21 22 23
46 49 54 56 55 56 55 63 63 59 43 46 67 65 60 57 55 61 57 56 56 53 50 44 40 36 39 39 37 34 40 45 46 47 47 42 41 36 28 27 30 31 27 23 21
52 54 53 56 59 61 48 39 43 39 33 64 70 69 66 59 57 60 59 59 57 54 50 49 49 46 42 41 38 38 38 41 43 44 35 34 39 35 31 29 34 28 30 29 25
57 54 55 55 56 59 40 22 12 26 52 67 69 67 59 50 56 58 61 57 60 59 55 52 48 43 44 40 41 39 41 30 33 23 26 25 24 24 30 34 36 37 36 33 29
55 53 48 47 49 50 33 18 27 36 50 58 61 54 47 40 55 59 60 58 59 63 60 52 38 52 46 47 47 45 33 40 39 31 26 27 24 24 18 24 34 36 40 36 33
52 49 45 43 46 44 25 24 33 36 36 49 55 59 56 60 74 65 58 57 65 64 66 62 46 39 53 55 48 46 47 40 36 37 27 21 16 21 25 16 31 34 38 38 32
51 42 40 38 44 36 32 30 27 20 24 38 47 57 58 51 69 74 47 55 66 64 64 63 69 56 52 52 50 47 47 42 40 36 33 18 15 29 22 22 31 35 38 38 33
48 37 35 32 37 35 37 25 16 15 28 28 31 48 67 48 57 72 68 78 74 70 67 66 71 67 48 42 53 56 51 46 41 35 33 34 20 26 18 19 30 37 35 37 36
52 34 34 35 36 37 35 23 15 21 20 20 28 34 52 57 37 51 71 80 76 72 73 70 68 67 57 52 46 56 56 51 47 46 35 33 27 35 24 19 28 36 38 38 39
49 37 32 32 34 34 34 25 14 12 19 15 18 24 36 61 51 50 54 80 74 72 69 70 67 66 60 32 41 45 53 57 55 46 42 25 30 25 31 19 31 36 40 44 43
52 39 32 31 31 34 32 21 16 17 16 14 12 17 25 42 60 51 49 74 76 77 71 72 70 65 66 49 58 57 57 56 56 54 47 40 27 27 29 28 28 39 38 41 40
48 39 29 27 27 32 31 27 18 15 13 15 16 26 22 20 46 68 50 65 80 78 77 77 70 69 70 71 70 67 62 59 55 50 50 49 41 27 37 37 30 32 39 39 41

GFSSW_500_spd_048.txt.gz
Wind_Speed
20 20 20 20 20 20 19 19 17 15 14 14 13 12 9 8 9 11 16 11 13 15 17 15 14 16 14 11 11 12 8 7 15 16 8 10 10 9 7 11 12 12 12 9 8
21 21 21 22 22 21 22 22 21 19 18 17 16 14 13 11 10 12 9 12 17 19 19 17 17 18 17 17 15 12 11 8 11 7 10 3 10 11 10 10 12 11 12 10 9
21 21 20 21 21 22 23 23 23 21 21 21 20 17 16 15 13 12 14 18 20 16 19 23 22 19 19 20 18 15 9 7 1 1 4 18 5 14 10 12 11 13 13 12 11
24 24 24 24 23 23 23 24 24 24 23 23 23 20 19 16 14 17 15 17 24 24 20 22 23 21 19 20 20 19 11 13 11 6 6 12 17 15 9 7 10 13 14 15 13
27 27 26 26 26 26 26 25 23 23 24 25 25 23 21 17 19 17 19 18 19 25 25 23 23 23 20 22 22 20 19 13 15 6 13 15 13 6 9 9 5 8 13 16 15
30 31 31 31 30 29 29 28 27 25 25 26 26 24 24 18 20 18 19 20 19 21 27 26 23 23 26 27 26 21 18 20 18 7 16 11 16 10 10 10 8 5 11 15 18
31 32 33 33 34 34 33 32 32 31 28 28 29 26 23 26 21 19 21 19 21 20 24 29 28 28 29 30 26 25 22 26 24 22 20 9 22 10 16 11 10 7 8 13 16
28 30 31 32 34 36 36 37 37 35 34 32 30 30 20 30 22 23 23 20 21 20 23 28 33 31 30 31 32 30 29 26 23 22 20 15 11 19 24 12 8 8 9 11 14
33 35 34 35 34 33 35 36 39 40 40 37 35 32 26 27 25 29 25 23 23 24 23 27 33 33 34 34 36 34 32 30 20 23 20 18 22 19 15 24 10 10 10 10 12
39 40 41 41 40 40 39 38 37 39 41 43 42 37 34 31 31 28 28 28 27 27 28 25 29 37 38 35 29 32 34 28 25 23 22 19 19 21 26 20 11 12 9 11 12
42 44 44 46 48 48 45 44 43 43 39 42 45 42 39 35 33 32 32 32 32 30 29 29 30 27 33 34 31 28 28 28 23 25 26 19 24 24 25 27 9 23 16 9 14
47 48 51 52 53 52 51 53 51 50 45 42 43 43 45 43 39 36 37 36 33 28 30 35 24 21 27 36 34 32 27 24 22 20 27 25 29 29 24 17 21 16 11 12 14
58 60 61 60 62 64 61 60 60 59 56 46 46 44 40 50 43 42 40 37 34 33 31 28 20 26 28 33 40 36 34 28 23 23 30 24 32 27 25 25 25 28 18 14 11
64 64 62 61 68 67 71 73 69 63 63 56 53 52 50 48 51 44 45 42 40 36 31 32 32 29 29 32 38 40 33 33 29 25 29 28 28 27 31 24 25 21 29 18 13
43 37 40 44 40 42 46 53 63 71 54 40 59 54 54 53 46 48 48 49 45 38 40 34 34 34 35 30 35 36 35 37 37 33 30 33 33 31 30 26 21 31 30 25 11
35 40 41 44 48 49 49 48 52 51 40 21 44 56 57 54 54 52 53 52 46 45 45 38 36 39 32 31 26 28 34 34 39 32 41 38 31 29 33 25 20 24 18 20 14
40 44 49 52 52 49 48 46 54 48 21 27 44 60 63 64 55 55 57 59 59 57 54 46 43 38 36 35 34 35 38 39 41 49 47 38 38 34 20 26 28 15 22 21 26
46 49 54 49 49 46 43 41 46 49 24 43 55 56 60 63 62 47 58 62 58 58 52 49 49 45 44 42 39 40 38 45 48 45 39 35 37 34 30 25 24 18 26 24 30
52 52 55 50 45 40 38 37 25 38 27 48 58 52 45 45 58 48 53 59 61 59 58 54 50 43 46 44 45 42 44 32 33 25 26 29 25 25 33 39 34 30 29 31 34
56 60 63 47 41 37 36 35 26 34 33 37 51 49 44 47 59 53 54 51 52 60 59 57 35 46 41 46 45 45 34 40 38 34 28 19 24 17 22 34 42 39 30 30 31
66 64 54 39 33 31 32 27 37 37 36 31 50 61 50 49 59 61 53 50 46 38 53 62 49 38 34 49 53 48 44 41 35 35 27 18 19 18 24 23 23 34 41 40 33
48 48 43 30 28 24 23 35 40 37 24 25 37 49 64 47 57 59 61 61 57 56 53 61 63 50 38 45 43 52 48 44 43 40 35 22 18 26 20 26 24 28 35 32 34
49 50 42 37 26 25 29 32 34 30 24 18 17 30 59 59 46 57 59 55 69 64 65 60 71 57 44 38 44 50 53 50 39 35 36 35 21 24 27 23 19 26 37 36 33
51 51 47 35 26 27 32 32 26 28 15 17 15 23 43 68 52 47 57 43 67 70 73 70 72 70 62 56 41 52 50 49 42 41 36 33 24 28 27 30 29 27 35 38 33
49 50 49 38 28 29 31 28 28 25 23 21 17 22 24 49 71 44 40 44 60 74 74 71 70 72 58 44 30 44 50 50 50 38 40 26 32 30 34 26 24 29 30 35 30
46 48 41 42 35 32 31 24 30 30 19 22 21 15 22 28 45 52 35 40 47 67 74 76 67 72 72 54 44 45 44 43 46 44 29 31 22 35 38 31 27 30 30 37 39
43 46 43 42 37 33 30 26 26 30 18 10 16 22 22 23 36 61 40 31 44 60 72 72 70 75 73 61 52 42 50 40 41 40 38 38 29 23 32 36 26 32 37 38 40